QPF
0.00 0.00 0.00 0.00 0.00 0.00 0.00 0.00 0.00 0.00 0.00 0.00 0.00 0.00 0.00 0.00 0.00 0.00 0.00 0.00 0.00 0.00 0.00 0.00 0.00 0.02 0.03 0.02 0.03 0.02 0.01 0.01 0.01 0.01 0.01 0.02 0.02 0.02 0.01 0.01 0.01 0.00 0.00 0.00
0.00 0.00 0.00 0.00 0.00 0.00 0.00 0.00 0.00 0.00 0.00 0.00 0.00 0.00 0.00 0.00 0.00 0.00 0.00 0.00 0.00 0.00 0.00 0.00 0.02 0.05 0.06 0.06 0.05 0.04 0.04 0.04 0.03 0.02 0.04 0.04 0.04 0.03 0.03 0.02 0.01 0.01 0.00 0.00
0.00 0.00 0.00 0.00 0.00 0.00 0.00 0.00 0.00 0.00 0.00 0.00 0.00 0.00 0.00 0.00 0.00 0.00 0.00 0.00 0.00 0.00 0.00 0.00 0.02 0.06 0.06 0.06 0.07 0.07 0.08 0.10 0.08 0.07 0.08 0.08 0.06 0.05 0.04 0.03 0.01 0.01 0.00 0.00
0.00 0.00 0.00 0.00 0.00 0.00 0.00 0.00 0.00 0.00 0.00 0.00 0.00 0.00 0.00 0.00 0.00 0.00 0.00 0.00 0.00 0.00 0.00 0.00 0.00 0.01 0.03 0.06 0.09 0.11 0.14 0.18 0.18 0.16 0.12 0.10 0.08 0.06 0.05 0.03 0.02 0.01 0.01 0.00
0.00 0.00 0.00 0.00 0.00 0.00 0.00 0.00 0.00 0.00 0.00 0.00 0.00 0.00 0.00 0.00 0.00 0.00 0.00 0.00 0.00 0.00 0.00 0.00 0.00 0.01 0.04 0.07 0.09 0.14 0.19 0.22 0.22 0.19 0.16 0.12 0.10 0.08 0.06 0.04 0.03 0.02 0.01 0.00
0.00 0.00 0.00 0.00 0.00 0.00 0.00 0.00 0.00 0.00 0.00 0.00 0.00 0.00 0.00 0.00 0.00 0.00 0.00 0.00 0.00 0.00 0.00 0.00 0.01 0.01 0.03 0.05 0.08 0.12 0.17 0.19 0.19 0.18 0.17 0.14 0.11 0.10 0.08 0.05 0.03 0.01 0.01 0.00
0.00 0.00 0.00 0.00 0.00 0.00 0.00 0.00 0.00 0.00 0.00 0.00 0.00 0.00 0.00 0.00 0.00 0.00 0.00 0.00 0.00 0.00 0.00 0.00 0.01 0.01 0.02 0.03 0.05 0.08 0.11 0.13 0.13 0.11 0.10 0.09 0.09 0.07 0.04 0.03 0.02 0.01 0.00 0.00
0.00 0.00 0.00 0.00 0.00 0.00 0.00 0.00 0.00 0.00 0.00 0.00 0.00 0.00 0.00 0.00 0.00 0.00 0.00 0.00 0.00 0.00 0.00 0.00 0.00 0.01 0.01 0.01 0.02 0.04 0.06 0.07 0.07 0.06 0.06 0.05 0.04 0.03 0.02 0.01 0.01 0.01 0.00 0.00
0.00 0.00 0.00 0.00 0.00 0.00 0.00 0.00 0.00 0.00 0.00 0.00 0.00 0.00 0.00 0.00 0.00 0.00 0.00 0.00 0.00 0.00 0.00 0.00 0.00 0.01 0.01 0.01 0.01 0.02 0.04 0.04 0.05 0.05 0.04 0.03 0.02 0.02 0.01 0.01 0.01 0.00 0.00 0.00
0.00 0.00 0.00 0.00 0.00 0.00 0.00 0.00 0.00 0.00 0.00 0.00 0.00 0.00 0.00 0.00 0.00 0.00 0.00 0.00 0.01 0.01 0.01 0.02 0.01 0.00 0.00 0.00 0.01 0.02 0.03 0.04 0.04 0.04 0.03 0.03 0.02 0.01 0.01 0.01 0.00 0.00 0.00 0.00
0.00 0.00 0.00 0.00 0.00 0.00 0.00 0.00 0.00 0.00 0.00 0.00 0.00 0.00 0.00 0.00 0.00 0.00 0.00 0.00 0.02 0.04 0.03 0.04 0.02 0.00 0.00 0.01 0.01 0.03 0.04 0.05 0.06 0.05 0.03 0.02 0.02 0.01 0.01 0.00 0.00 0.00 0.00 0.00
0.00 0.00 0.00 0.00 0.00 0.00 0.00 0.00 0.00 0.00 0.00 0.00 0.00 0.00 0.00 0.00 0.00 0.00 0.00 0.00 0.02 0.05 0.04 0.03 0.01 0.00 0.00 0.01 0.02 0.03 0.06 0.07 0.06 0.04 0.03 0.02 0.01 0.01 0.00 0.00 0.00 0.00 0.00 0.00
0.00 0.00 0.00 0.00 0.00 0.00 0.00 0.00 0.00 0.00 0.00 0.00 0.00 0.00 0.00 0.00 0.00 0.00 0.01 0.02 0.07 0.12 0.08 0.04 0.01 0.01 0.01 0.01 0.02 0.04 0.07 0.07 0.05 0.04 0.02 0.01 0.01 0.00 0.00 0.00 0.00 0.00 0.00 0.00
0.00 0.00 0.00 0.00 0.00 0.00 0.00 0.00 0.00 0.00 0.00 0.00 0.00 0.00 0.00 0.00 0.01 0.02 0.05 0.09 0.15 0.15 0.08 0.03 0.02 0.02 0.01 0.02 0.04 0.05 0.06 0.06 0.04 0.03 0.01 0.01 0.01 0.01 0.00 0.00 0.00 0.00 0.00 0.01
0.00 0.00 0.00 0.00 0.00 0.00 0.00 0.00 0.00 0.00 0.00 0.00 0.00 0.00 0.00 0.01 0.01 0.03 0.05 0.07 0.10 0.09 0.06 0.04 0.03 0.02 0.02 0.02 0.04 0.05 0.06 0.06 0.05 0.03 0.02 0.02 0.01 0.01 0.01 0.00 0.01 0.01 0.02 0.02
0.00 0.00 0.00 0.00 0.00 0.00 0.00 0.00 0.00 0.00 0.00 0.00 0.00 0.00 0.01 0.01 0.01 0.02 0.03 0.03 0.05 0.08 0.08 0.07 0.04 0.04 0.03 0.04 0.06 0.07 0.08 0.07 0.06 0.04 0.03 0.02 0.01 0.01 0.01 0.01 0.02 0.02 0.03 0.02
0.00 0.00 0.00 0.00 0.00 0.00 0.00 0.00 0.00 0.00 0.00 0.00 0.00 0.00 0.00 0.00 0.01 0.01 0.01 0.01 0.05 0.08 0.09 0.08 0.05 0.04 0.04 0.06 0.09 0.11 0.12 0.11 0.09 0.07 0.05 0.03 0.02 0.02 0.02 0.02 0.02 0.02 0.01 0.01
0.00 0.00 0.00 0.00 0.00 0.00 0.00 0.00 0.00 0.00 0.00 0.00 0.00 0.00 0.00 0.00 0.00 0.00 0.01 0.02 0.04 0.06 0.07 0.06 0.05 0.06 0.08 0.11 0.13 0.15 0.14 0.12 0.10 0.08 0.06 0.04 0.03 0.02 0.02 0.02 0.01 0.01 0.00 0.00
0.00 0.00 0.00 0.00 0.00 0.00 0.00 0.00 0.00 0.00 0.00 0.00 0.00 0.00 0.00 0.00 0.01 0.02 0.01 0.01 0.02 0.03 0.04 0.04 0.06 0.09 0.12 0.14 0.15 0.16 0.14 0.11 0.09 0.07 0.05 0.03 0.02 0.01 0.01 0.01 0.01 0.00 0.00 0.00
0.00 0.00 0.00 0.00 0.01 0.01 0.02 0.00 0.00 0.00 0.01 0.01 0.00 0.00 0.00 0.00 0.02 0.03 0.01 0.00 0.00 0.01 0.02 0.04 0.07 0.11 0.14 0.16 0.15 0.13 0.10 0.08 0.05 0.03 0.02 0.01 0.01 0.00 0.00 0.00 0.00 0.00 0.00 0.00
0.01 0.01 0.01 0.01 0.02 0.03 0.02 0.00 0.00 0.01 0.03 0.02 0.01 0.00 0.01 0.02 0.03 0.02 0.01 0.00 0.01 0.02 0.03 0.05 0.07 0.10 0.11 0.11 0.09 0.08 0.06 0.05 0.03 0.02 0.01 0.01 0.00 0.00 0.00 0.00 0.00 0.00 0.01 0.01
0.02 0.03 0.04 0.04 0.05 0.06 0.02 0.00 0.00 0.01 0.01 0.00 0.00 0.00 0.01 0.02 0.02 0.01 0.01 0.01 0.01 0.03 0.04 0.06 0.08 0.09 0.09 0.07 0.06 0.05 0.04 0.02 0.01 0.01 0.01 0.00 0.00 0.00 0.00 0.00 0.00 0.00 0.01 0.01
0.00 0.03 0.06 0.07 0.07 0.05 0.02 0.01 0.00 0.00 0.00 0.00 0.01 0.01 0.02 0.02 0.02 0.01 0.01 0.02 0.03 0.04 0.05 0.06 0.07 0.07 0.05 0.04 0.03 0.02 0.02 0.01 0.00 0.00 0.00 0.00 0.00 0.00 0.00 0.00 0.00 0.00 0.01 0.01
0.03 0.01 0.01 0.02 0.03 0.02 0.01 0.01 0.00 0.00 0.01 0.01 0.01 0.02 0.03 0.03 0.02 0.02 0.03 0.03 0.04 0.05 0.06 0.05 0.04 0.04 0.02 0.02 0.01 0.01 0.00 0.00 0.00 0.00 0.00 0.01 0.01 0.00 0.00 0.00 0.00 0.01 0.01 0.01
0.04 0.02 0.02 0.04 0.05 0.04 0.02 0.02 0.01 0.01 0.01 0.02 0.03 0.04 0.05 0.05 0.04 0.03 0.03 0.04 0.04 0.04 0.04 0.03 0.03 0.02 0.01 0.01 0.00 0.00 0.00 0.00 0.00 0.00 0.00 0.01 0.01 0.01 0.01 0.00 0.00 0.01 0.01 0.00
0.01 0.03 0.06 0.06 0.05 0.05 0.04 0.03 0.02 0.02 0.02 0.03 0.03 0.05 0.06 0.06 0.05 0.04 0.04 0.04 0.03 0.03 0.03 0.03 0.02 0.01 0.00 0.00 0.00 0.00 0.00 0.00 0.00 0.01 0.01 0.01 0.00 0.00 0.00 0.01 0.01 0.00 0.00 0.00
MSLP
1007.59 1007.94 1008.07 1008.03 1007.87 1007.67 1007.46 1007.29 1007.15 1007.02 1006.85 1006.61 1006.26 1005.80 1005.23 1004.61 1003.99 1003.42 1002.97 1002.66 1002.52 1002.56 1002.77 1003.15 1003.67 1004.33 1005.12 1006.02 1007.03 1008.11 1009.21 1010.29 1011.29 1012.17 1012.90 1013.46 1013.87 1014.16 1014.37 1014.58 1014.81 1015.10 1015.45 1015.87
1007.69 1007.85 1007.81 1007.64 1007.44 1007.26 1007.15 1007.14 1007.19 1007.23 1007.20 1007.02 1006.66 1006.11 1005.41 1004.61 1003.82 1003.12 1002.57 1002.24 1002.14 1002.26 1002.58 1003.07 1003.69 1004.43 1005.27 1006.20 1007.21 1008.28 1009.39 1010.49 1011.52 1012.43 1013.20 1013.79 1014.21 1014.48 1014.67 1014.82 1014.99 1015.23 1015.56 1015.98
1007.61 1007.59 1007.42 1007.17 1006.96 1006.85 1006.89 1007.07 1007.31 1007.52 1007.60 1007.47 1007.07 1006.42 1005.55 1004.58 1003.62 1002.79 1002.19 1001.86 1001.83 1002.07 1002.55 1003.20 1003.96 1004.80 1005.70 1006.65 1007.64 1008.67 1009.73 1010.78 1011.78 1012.68 1013.44 1014.03 1014.45 1014.72 1014.89 1015.02 1015.17 1015.38 1015.69 1016.10
1007.29 1007.15 1006.88 1006.61 1006.44 1006.46 1006.67 1007.04 1007.48 1007.86 1008.04 1007.93 1007.47 1006.70 1005.67 1004.51 1003.39 1002.45 1001.80 1001.50 1001.57 1001.97 1002.64 1003.48 1004.42 1005.39 1006.36 1007.32 1008.28 1009.24 1010.20 1011.16 1012.07 1012.90 1013.62 1014.19 1014.60 1014.88 1015.05 1015.19 1015.33 1015.55 1015.86 1016.26
1006.76 1006.52 1006.22 1005.98 1005.90 1006.06 1006.46 1007.04 1007.67 1008.19 1008.45 1008.35 1007.83 1006.93 1005.74 1004.42 1003.15 1002.11 1001.43 1001.17 1001.36 1001.93 1002.80 1003.85 1004.97 1006.09 1007.15 1008.13 1009.05 1009.92 1010.76 1011.58 1012.37 1013.10 1013.75 1014.27 1014.68 1014.97 1015.17 1015.33 1015.51 1015.74 1016.06 1016.47
1006.07 1005.78 1005.48 1005.30 1005.34 1005.66 1006.24 1007.01 1007.80 1008.44 1008.78 1008.68 1008.11 1007.10 1005.78 1004.31 1002.93 1001.81 1001.10 1000.89 1001.18 1001.91 1002.97 1004.22 1005.54 1006.80 1007.95 1008.97 1009.85 1010.64 1011.36 1012.04 1012.69 1013.30 1013.86 1014.34 1014.72 1015.03 1015.27 1015.48 1015.70 1015.96 1016.30 1016.70
1005.33 1005.02 1004.75 1004.63 1004.79 1005.25 1005.99 1006.91 1007.83 1008.57 1008.95 1008.86 1008.26 1007.18 1005.77 1004.21 1002.75 1001.57 1000.85 1000.68 1001.05 1001.91 1003.13 1004.55 1006.03 1007.43 1008.67 1009.73 1010.61 1011.33 1011.95 1012.51 1013.03 1013.52 1013.99 1014.42 1014.79 1015.11 1015.39 1015.65 1015.91 1016.21 1016.56 1016.95
1004.68 1004.37 1004.12 1004.07 1004.31 1004.87 1005.71 1006.72 1007.72 1008.52 1008.94 1008.87 1008.27 1007.18 1005.74 1004.15 1002.65 1001.46 1000.74 1000.59 1001.01 1001.95 1003.27 1004.82 1006.41 1007.92 1009.25 1010.36 1011.25 1011.94 1012.49 1012.96 1013.39 1013.79 1014.18 1014.56 1014.92 1015.25 1015.56 1015.85 1016.15 1016.47 1016.81 1017.18
1004.26 1003.95 1003.72 1003.71 1003.98 1004.57 1005.43 1006.46 1007.48 1008.29 1008.74 1008.70 1008.13 1007.09 1005.70 1004.15 1002.69 1001.52 1000.82 1000.68 1001.12 1002.08 1003.43 1005.03 1006.69 1008.27 1009.67 1010.83 1011.75 1012.45 1012.98 1013.41 1013.78 1014.12 1014.46 1014.80 1015.14 1015.47 1015.79 1016.10 1016.41 1016.72 1017.04 1017.36
1004.17 1003.86 1003.64 1003.61 1003.86 1004.41 1005.21 1006.17 1007.13 1007.91 1008.36 1008.36 1007.88 1006.94 1005.67 1004.24 1002.88 1001.79 1001.13 1001.00 1001.42 1002.35 1003.68 1005.25 1006.91 1008.51 1009.95 1011.16 1012.12 1012.86 1013.42 1013.85 1014.20 1014.52 1014.83 1015.14 1015.46 1015.77 1016.07 1016.38 1016.67 1016.95 1017.23 1017.50
1004.46 1004.16 1003.93 1003.85 1004.02 1004.44 1005.10 1005.91 1006.74 1007.44 1007.87 1007.91 1007.54 1006.76 1005.68 1004.45 1003.27 1002.30 1001.71 1001.59 1001.98 1002.84 1004.08 1005.57 1007.17 1008.74 1010.17 1011.41 1012.43 1013.22 1013.83 1014.30 1014.67 1014.99 1015.29 1015.58 1015.86 1016.14 1016.41 1016.67 1016.92 1017.17 1017.39 1017.60
1005.10 1004.81 1004.55 1004.41 1004.44 1004.68 1005.14 1005.74 1006.39 1006.96 1007.34 1007.42 1007.17 1006.60 1005.76 1004.79 1003.83 1003.05 1002.56 1002.48 1002.83 1003.59 1004.71 1006.07 1007.56 1009.05 1010.45 1011.69 1012.74 1013.59 1014.25 1014.77 1015.18 1015.51 1015.80 1016.07 1016.31 1016.54 1016.76 1016.97 1017.17 1017.36 1017.54 1017.70
1005.98 1005.72 1005.43 1005.20 1005.09 1005.13 1005.34 1005.70 1006.13 1006.54 1006.85 1006.97 1006.85 1006.49 1005.93 1005.25 1004.57 1004.00 1003.67 1003.64 1003.96 1004.64 1005.62 1006.83 1008.16 1009.54 1010.86 1012.07 1013.12 1014.00 1014.71 1015.28 1015.72 1016.07 1016.35 1016.58 1016.78 1016.95 1017.11 1017.26 1017.41 1017.55 1017.68 1017.81
1006.96 1006.74 1006.45 1006.15 1005.90 1005.74 1005.71 1005.81 1006.01 1006.26 1006.48 1006.62 1006.63 1006.48 1006.20 1005.83 1005.45 1005.14 1004.98 1005.05 1005.37 1005.97 1006.82 1007.87 1009.04 1010.27 1011.48 1012.62 1013.64 1014.52 1015.24 1015.82 1016.27 1016.62 1016.88 1017.07 1017.22 1017.34 1017.44 1017.54 1017.63 1017.74 1017.85 1017.96
1007.89 1007.73 1007.46 1007.13 1006.77 1006.45 1006.21 1006.08 1006.07 1006.15 1006.29 1006.44 1006.56 1006.62 1006.61 1006.54 1006.46 1006.41 1006.45 1006.64 1006.99 1007.55 1008.28 1009.18 1010.19 1011.26 1012.33 1013.36 1014.31 1015.14 1015.83 1016.39 1016.83 1017.15 1017.37 1017.52 1017.62 1017.68 1017.74 1017.79 1017.86 1017.94 1018.04 1018.15
1008.66 1008.58 1008.36 1008.03 1007.62 1007.20 1006.81 1006.51 1006.33 1006.28 1006.35 1006.50 1006.70 1006.93 1007.16 1007.37 1007.56 1007.78 1008.03 1008.35 1008.76 1009.29 1009.95 1010.71 1011.57 1012.47 1013.39 1014.27 1015.10 1015.84 1016.46 1016.96 1017.34 1017.62 1017.79 1017.90 1017.95 1017.98 1017.99 1018.02 1018.07 1018.15 1018.26 1018.39
1009.22 1009.23 1009.09 1008.80 1008.41 1007.95 1007.49 1007.09 1006.80 1006.66 1006.67 1006.82 1007.10 1007.46 1007.87 1008.31 1008.75 1009.19 1009.63 1010.09 1010.58 1011.12 1011.72 1012.38 1013.08 1013.82 1014.57 1015.30 1015.98 1016.58 1017.09 1017.50 1017.80 1018.01 1018.13 1018.19 1018.21 1018.22 1018.22 1018.25 1018.30 1018.39 1018.51 1018.65
1009.57 1009.66 1009.62 1009.43 1009.10 1008.68 1008.23 1007.81 1007.48 1007.30 1007.28 1007.44 1007.76 1008.22 1008.77 1009.37 1010.00 1010.63 1011.23 1011.81 1012.37 1012.93 1013.48 1014.05 1014.63 1015.21 1015.79 1016.34 1016.85 1017.30 1017.68 1017.97 1018.18 1018.32 1018.39 1018.42 1018.42 1018.42 1018.44 1018.48 1018.55 1018.65 1018.79 1018.94
1009.78 1009.95 1010.01 1009.93 1009.72 1009.41 1009.03 1008.66 1008.36 1008.18 1008.17 1008.34 1008.69 1009.20 1009.83 1010.54 1011.29 1012.03 1012.75 1013.42 1014.04 1014.60 1015.13 1015.62 1016.08 1016.52 1016.93 1017.31 1017.65 1017.94 1018.18 1018.35 1018.47 1018.54 1018.58 1018.59 1018.60 1018.62 1018.67 1018.74 1018.84 1018.96 1019.10 1019.25
1009.94 1010.17 1010.33 1010.39 1010.32 1010.14 1009.90 1009.63 1009.40 1009.28 1009.29 1009.47 1009.83 1010.36 1011.02 1011.78 1012.58 1013.38 1014.16 1014.87 1015.52 1016.08 1016.57 1016.98 1017.34 1017.65 1017.91 1018.13 1018.31 1018.45 1018.56 1018.63 1018.68 1018.70 1018.72 1018.74 1018.78 1018.84 1018.93 1019.04 1019.17 1019.32 1019.46 1019.58
1010.14 1010.42 1010.67 1010.84 1010.92 1010.91 1010.82 1010.68 1010.57 1010.51 1010.57 1010.77 1011.13 1011.64 1012.29 1013.03 1013.83 1014.63 1015.41 1016.13 1016.76 1017.30 1017.74 1018.09 1018.35 1018.54 1018.67 1018.76 1018.81 1018.83 1018.83 1018.82 1018.81 1018.82 1018.84 1018.90 1018.98 1019.10 1019.24 1019.40 1019.57 1019.72 1019.86 1019.95
1010.43 1010.74 1011.06 1011.34 1011.56 1011.70 1011.76 1011.78 1011.78 1011.82 1011.93 1012.14 1012.49 1012.96 1013.55 1014.24 1014.98 1015.74 1016.47 1017.15 1017.74 1018.23 1018.62 1018.89 1019.08 1019.17 1019.20 1019.19 1019.13 1019.06 1018.99 1018.93 1018.91 1018.91 1018.97 1019.07 1019.21 1019.39 1019.59 1019.80 1020.00 1020.17 1020.29 1020.35
1010.84 1011.15 1011.52 1011.89 1012.22 1012.49 1012.70 1012.85 1012.96 1013.09 1013.24 1013.47 1013.79 1014.22 1014.74 1015.34 1015.99 1016.66 1017.31 1017.91 1018.44 1018.87 1019.20 1019.41 1019.53 1019.56 1019.52 1019.43 1019.31 1019.19 1019.08 1019.01 1018.99 1019.02 1019.11 1019.26 1019.47 1019.71 1019.96 1020.21 1020.44 1020.62 1020.73 1020.76
1011.32 1011.64 1012.03 1012.46 1012.87 1013.25 1013.57 1013.83 1014.04 1014.23 1014.43 1014.67 1014.96 1015.32 1015.75 1016.25 1016.80 1017.37 1017.92 1018.43 1018.88 1019.25 1019.51 1019.68 1019.75 1019.74 1019.66 1019.54 1019.39 1019.25 1019.14 1019.08 1019.07 1019.14 1019.28 1019.48 1019.73 1020.02 1020.31 1020.59 1020.84 1021.02 1021.12 1021.13
1011.81 1012.13 1012.54 1013.00 1013.48 1013.92 1014.32 1014.66 1014.95 1015.19 1015.41 1015.64 1015.90 1016.20 1016.55 1016.95 1017.39 1017.84 1018.30 1018.72 1019.10 1019.40 1019.62 1019.75 1019.80 1019.77 1019.69 1019.56 1019.43 1019.30 1019.21 1019.17 1019.19 1019.29 1019.46 1019.69 1019.98 1020.29 1020.60 1020.89 1021.14 1021.32 1021.41 1021.41
1012.24 1012.57 1012.99 1013.47 1013.97 1014.46 1014.91 1015.30 1015.63 1015.91 1016.14 1016.36 1016.58 1016.82 1017.10 1017.40 1017.75 1018.11 1018.47 1018.82 1019.13 1019.39 1019.58 1019.70 1019.75 1019.73 1019.67 1019.57 1019.46 1019.36 1019.30 1019.29 1019.34 1019.46 1019.64 1019.88 1020.17 1020.47 1020.78 1021.06 1021.29 1021.46 1021.55 1021.55
Thickness
5751 5742 5741 5753 5763 5766 5769 5773 5780 5796 5817 5814 5807 5805 5814 5826 5823 5820 5823 5828 5829 5830 5833 5829 5818 5809 5799 5790 5783 5777 5768 5761 5754 5747 5739 5732 5726 5721 5716 5710 5705 5701 5696 5691
5739 5738 5757 5768 5771 5769 5765 5762 5770 5789 5811 5809 5803 5801 5809 5816 5818 5818 5817 5819 5823 5825 5822 5818 5809 5797 5788 5781 5776 5770 5762 5754 5747 5740 5734 5727 5719 5712 5706 5700 5695 5691 5686 5682
5734 5754 5768 5763 5762 5761 5762 5760 5765 5772 5788 5797 5788 5781 5791 5802 5812 5817 5819 5818 5820 5821 5813 5807 5800 5790 5782 5773 5767 5761 5753 5745 5737 5731 5724 5715 5707 5700 5692 5688 5684 5680 5676 5671
5742 5760 5765 5761 5758 5760 5751 5768 5767 5765 5760 5760 5771 5753 5778 5791 5797 5805 5811 5814 5815 5816 5810 5801 5791 5782 5774 5765 5759 5751 5743 5734 5726 5719 5712 5703 5696 5690 5685 5681 5675 5670 5666 5661
5743 5757 5757 5752 5758 5762 5757 5770 5766 5761 5754 5748 5756 5746 5762 5787 5787 5800 5810 5816 5816 5814 5809 5796 5785 5774 5764 5755 5746 5737 5729 5721 5714 5708 5701 5695 5689 5683 5677 5671 5665 5660 5654 5650
5753 5770 5769 5764 5769 5766 5764 5759 5755 5753 5746 5727 5744 5741 5748 5776 5787 5799 5811 5818 5814 5809 5803 5789 5776 5763 5752 5742 5732 5723 5715 5708 5702 5697 5691 5686 5680 5673 5666 5660 5654 5649 5644 5640
5737 5753 5770 5773 5758 5760 5755 5735 5717 5714 5717 5724 5755 5748 5757 5787 5800 5804 5806 5808 5805 5798 5789 5774 5761 5748 5738 5728 5719 5711 5703 5695 5690 5685 5680 5675 5669 5662 5655 5649 5643 5639 5634 5629
5725 5731 5757 5765 5755 5747 5747 5737 5713 5705 5717 5740 5763 5758 5777 5799 5804 5803 5801 5798 5792 5781 5772 5758 5746 5735 5724 5715 5707 5699 5691 5684 5678 5673 5667 5662 5656 5651 5645 5638 5634 5628 5623 5616
5733 5740 5770 5773 5770 5756 5741 5741 5746 5729 5724 5719 5735 5757 5777 5792 5791 5790 5788 5786 5778 5769 5759 5746 5734 5723 5713 5703 5695 5687 5680 5672 5666 5661 5655 5649 5644 5639 5633 5626 5622 5617 5609 5603
5736 5728 5754 5775 5771 5761 5753 5748 5739 5724 5706 5701 5720 5736 5751 5768 5773 5778 5775 5771 5766 5757 5746 5733 5721 5712 5702 5692 5682 5674 5666 5660 5654 5648 5643 5637 5631 5625 5620 5615 5608 5602 5595 5588
5731 5716 5732 5754 5750 5744 5745 5737 5732 5729 5727 5710 5705 5727 5764 5757 5760 5759 5761 5760 5755 5745 5734 5723 5710 5701 5689 5678 5668 5659 5653 5647 5641 5636 5630 5624 5618 5612 5607 5602 5596 5589 5582 5575
5720 5714 5710 5731 5757 5763 5751 5744 5736 5713 5710 5716 5708 5721 5763 5758 5753 5747 5745 5744 5741 5732 5722 5711 5699 5686 5674 5663 5654 5647 5640 5634 5628 5623 5617 5611 5605 5599 5594 5588 5582 5575 5568 5561
5699 5698 5687 5699 5721 5741 5740 5742 5740 5733 5722 5711 5703 5715 5750 5743 5733 5729 5726 5722 5718 5712 5705 5695 5684 5672 5661 5651 5642 5634 5627 5621 5615 5610 5603 5597 5591 5585 5579 5573 5567 5560 5554 5548
5686 5683 5681 5682 5699 5711 5713 5722 5727 5722 5710 5706 5709 5714 5717 5713 5710 5712 5710 5706 5699 5693 5688 5681 5670 5659 5649 5639 5630 5621 5613 5608 5602 5595 5588 5581 5575 5569 5563 5558 5552 5546 5539 5534
5673 5668 5676 5687 5700 5704 5700 5702 5705 5702 5702 5695 5701 5702 5691 5690 5691 5693 5694 5694 5690 5683 5676 5666 5657 5646 5636 5626 5616 5607 5598 5591 5585 5578 5571 5565 5558 5553 5548 5542 5537 5531 5525 5519
5663 5654 5660 5667 5685 5690 5689 5694 5696 5695 5696 5694 5693 5690 5677 5677 5677 5676 5677 5678 5674 5669 5662 5652 5641 5631 5620 5610 5599 5589 5581 5573 5566 5559 5553 5548 5543 5538 5533 5528 5522 5515 5508 5503
5648 5643 5639 5644 5663 5667 5665 5681 5684 5686 5688 5680 5669 5662 5663 5659 5655 5653 5655 5656 5653 5648 5642 5632 5619 5608 5598 5588 5580 5571 5562 5555 5548 5542 5537 5533 5528 5523 5519 5514 5507 5499 5492 5486
5628 5626 5628 5632 5637 5627 5658 5674 5672 5666 5663 5661 5656 5651 5647 5641 5637 5632 5631 5629 5626 5620 5613 5603 5593 5582 5573 5565 5558 5551 5544 5538 5533 5528 5525 5520 5516 5510 5504 5498 5491 5484 5477 5471
5626 5616 5613 5616 5618 5631 5647 5645 5648 5644 5633 5631 5631 5631 5633 5632 5626 5610 5604 5601 5596 5590 5583 5575 5567 5559 5551 5544 5538 5533 5528 5523 5520 5517 5512 5507 5502 5496 5489 5481 5474 5468 5463 5457
5619 5613 5605 5607 5605 5608 5610 5626 5635 5630 5611 5608 5611 5611 5614 5615 5607 5587 5580 5575 5568 5563 5557 5550 5544 5538 5531 5525 5521 5517 5513 5511 5508 5504 5499 5493 5487 5481 5472 5464 5458 5453 5449 5444
5599 5600 5598 5598 5598 5603 5597 5615 5620 5603 5586 5593 5596 5596 5596 5592 5581 5566 5559 5552 5546 5541 5535 5530 5525 5519 5513 5509 5507 5504 5501 5498 5495 5490 5485 5479 5473 5467 5459 5451 5445 5440 5436 5431
5595 5592 5592 5592 5586 5579 5586 5595 5584 5575 5580 5580 5581 5582 5578 5569 5559 5549 5541 5534 5529 5523 5518 5514 5509 5504 5500 5498 5496 5492 5489 5485 5481 5477 5471 5464 5458 5453 5447 5441 5434 5429 5423 5419
5594 5591 5583 5576 5568 5569 5573 5569 5567 5568 5566 5566 5566 5567 5562 5552 5541 5532 5524 5518 5513 5508 5504 5501 5499 5495 5492 5489 5486 5482 5478 5475 5471 5466 5460 5454 5448 5441 5435 5430 5423 5417 5411 5406
5582 5588 5584 5574 5566 5563 5559 5556 5553 5552 5549 5549 5549 5549 5544 5534 5524 5517 5510 5505 5500 5496 5494 5492 5491 5488 5483 5480 5477 5474 5470 5466 5462 5457 5453 5447 5439 5432 5424 5418 5412 5405 5399 5394
5570 5573 5571 5565 5558 5553 5545 5542 5539 5536 5534 5532 5531 5529 5524 5518 5511 5505 5500 5496 5492 5490 5489 5487 5484 5479 5476 5472 5469 5466 5463 5459 5455 5451 5446 5438 5430 5422 5414 5407 5399 5395 5387 5383
5565 5561 5556 5548 5544 5540 5531 5529 5528 5523 5519 5516 5513 5510 5507 5505 5500 5497 5493 5490 5488 5486 5484 5481 5479 5476 5472 5468 5463 5460 5456 5452 5448 5443 5436 5429 5421 5413 5407 5401 5394 5386 5383 5378